Location: ??
(35.1715°N, 139.6450°E)
Time: 18:53:17
(UTC+00:00)

Cosmos 676 Rocket - Pass Details

Date: 05 August 2024
Orbit: 751 x 781 km, 74.0° (Epoch: 18 September)

Event Time Altitude Azimuth Distance (km) Brightness Sun altitude
Rises 12:15:03 0° 337° (NNW) 3,210 8.4 -26.7°
Reaches altitude 10° 12:17:27 10° 333° (NNW) 2,284 7.4 -27.1°
Maximum altitude 12:22:28 54° 257° (WSW) 914 4.4 -27.7°
Enters shadow 12:22:42 54° 246° (WSW) 919 4.4 -27.8°
